Queretaro Airport,

12:41 PM CDT on April 19, 2018 (GMT -0500)
Queretaro Airport

Weather History for MMQT - July, 2013

Change the Weather History Date:

Sunday, July 7, 2013

  Actual Average Record
Temperature  
Mean Temperature 68 °F -  
Max Temperature 78 °F 76 °F 85 °F (2016)
Min Temperature 59 °F 56 °F 53 °F (1999)
Cooling Degree Days 4    
Growing Degree Days 18 (Base 50)    
Moisture  
Dew Point 58 °F    
Average Humidity 82    
Maximum Humidity 94    
Minimum Humidity 36    
Precipitation  
Precipitation 0.31 in - - ()
Sea Level Pressure  
Sea Level Pressure 30.12 in    
Wind  
Wind Speed 3 mph ()    
Max Wind Speed 12 mph    
Max Gust Speed -    
Visibility 5.2 miles    
Events Rain , Thunderstorm    
Averages and records for this station are not official NWS values.
T = Trace of Precipitation, MM = Missing Value Source: Averaged Metar Reports

Daily Weather History Graph

Daily Weather History Graph

Search for Another Location

Airport or City:

Astronomy

Jul. 07, 2013 Rise Set
Actual Time 7:05 AM CDT 8:25 PM CDT
Civil Twilight 6:41 AM CDT 8:50 PM CDT
Nautical Twilight 6:12 AM CDT 9:19 PM CDT
Astronomical Twilight 5:42 AM CDT 9:49 PM CDT
Moon 6:36 AM CDT (7/7) 8:00 PM CDT (7/7)
Length of Visible Light 14h 08m
Length of Day
13h 19m
Waning Crescent, 0% of the Moon is Illuminated
Jul 7
Waning Crescent
Jul 8
New
Jul 15
First Quarter
Jul 22
Full
Jul 29
Last Quarter

Hourly Weather History & Observations

Time (CDT) Temp. Dew Point Humidity Pressure Visibility Wind Dir Wind Speed Gust Speed Precip Events Conditions
12:43 AM 60.8 °F 59.0 °F 94% 30.23 in 2.0 mi Calm Calm - N/A Rain Rain
12:45 AM 61 °F 59 °F 92% 29.83 in 6 mi SE 2.2 mph - - Rain Light Rain
1:55 AM 60.8 °F 59.0 °F 94% 30.23 in 2.0 mi ESE 6.9 mph - N/A Rain Rain
2:45 AM 60.8 °F 59.0 °F 94% 30.23 in 2.0 mi Calm Calm - N/A Rain Light Rain
3:40 AM 61 °F 58 °F 88% 29.88 in 6 mi East 2.2 mph - -   Partly Cloudy
3:45 AM 60.8 °F 59.0 °F 94% 30.23 in 2.0 mi Calm Calm - N/A Rain Light Rain
4:45 AM 59.0 °F 57.2 °F 94% 30.21 in 2.0 mi Calm Calm - N/A   Overcast
5:52 AM 59.0 °F 57.2 °F 94% 30.21 in 2.0 mi Calm Calm - N/A   Overcast
6:00 AM 59.0 °F 57.2 °F 94% 30.21 in 3.0 mi Calm Calm - N/A   Overcast
6:40 AM 60 °F 56 °F 83% 29.81 in 0 mi North 2.2 mph - -   Partly Cloudy
6:45 AM 59.0 °F 57.2 °F 94% 30.20 in 4.0 mi Calm Calm - N/A   Mostly Cloudy
7:45 AM 59.0 °F 57.2 °F 94% 30.20 in 5.0 mi Calm Calm - N/A   Mostly Cloudy
8:45 AM 60.8 °F 59.0 °F 94% 30.21 in 5.0 mi Calm Calm - N/A   Mostly Cloudy
9:40 AM 65 °F 58 °F 73% 29.84 in 16 mi North 4.5 mph - -   Scattered Clouds
9:45 AM 64.4 °F 57.2 °F 77% 30.21 in 6.0 mi Calm Calm - N/A   Mostly Cloudy
11:00 AM 68.0 °F 57.2 °F 68% 30.23 in 6.0 mi Calm Calm - N/A   Mostly Cloudy
11:48 AM 69.8 °F 59.0 °F 68% 30.23 in 8.0 mi WNW 5.8 mph - N/A   Mostly Cloudy
12:52 PM 75 °F 56 °F 42% 29.80 in 14 mi West 4.5 mph - -   Partly Cloudy
12:55 PM 73.4 °F 53.6 °F 50% 30.21 in 8.0 mi WNW 8.1 mph - N/A   Mostly Cloudy
1:43 PM 73.4 °F 53.6 °F 50% 30.21 in 8.0 mi NNW 6.9 mph - N/A   Mostly Cloudy
2:48 PM 73.4 °F 51.8 °F 47% 30.19 in 8.0 mi NNW 5.8 mph - N/A   Mostly Cloudy
3:28 PM 69.8 °F 59.0 °F 68% 30.17 in 6.0 mi ENE 11.5 mph - N/A Rain Rain
3:48 PM 66.2 °F 59.0 °F 78% 30.16 in 4.0 mi NE 11.5 mph - N/A Rain , Thunderstorm Thunderstorms and Rain
3:50 PM 78 °F 56 °F 36% 29.68 in 9 mi WNW 4.5 mph - - Rain Light Rain
4:35 PM 62.6 °F 60.8 °F 94% 30.16 in 1.0 mi South 9.2 mph - N/A Rain , Thunderstorm Thunderstorms and Rain
4:48 PM 60.8 °F 59.0 °F 94% 30.18 in 1.0 mi ESE 9.2 mph - N/A Rain , Thunderstorm Thunderstorms and Rain
5:45 PM 60.8 °F 59.0 °F 94% 30.19 in 1.0 mi East 6.9 mph - N/A Rain , Thunderstorm Thunderstorms and Rain
6:48 PM 60.8 °F 59.0 °F 94% 30.19 in 2.0 mi NE 6.9 mph - N/A Rain , Thunderstorm Thunderstorms and Rain
6:50 PM 62 °F 58 °F 84% 29.70 in 9 mi SE 6.7 mph - - Rain Rain
7:48 PM 60.8 °F 59.0 °F 94% 30.21 in 3.0 mi East 6.9 mph - N/A Rain Light Rain
8:48 PM 60.8 °F 59.0 °F 94% 30.23 in 6.0 mi East 9.2 mph - N/A Rain Light Rain
9:45 PM 60.8 °F 59.0 °F 94% 30.28 in 5.0 mi East 10.4 mph - N/A Rain Light Rain
9:55 PM 61 °F 59 °F 89% 29.77 in 9 mi NE 8.9 mph - - Rain Rain
10:45 PM 60.8 °F 55.4 °F 82% 30.28 in 5.0 mi East 4.6 mph - N/A Rain Light Rain
11:45 PM 60.8 °F 55.4 °F 82% 30.28 in 5.0 mi Calm Calm - N/A Rain Light Rain